DLH33U EDDF-LOWW

Flight info

Callsign DLH33U
Flight time N/A
Altitude 29000
Route SULUS7S/18 SULUS Z650 VEMUT DCT BUDEX BUDEX2W
Aircraft A321/M-SDE2E3FGIJ1LORWXYZ/HB1

Departure

Time 2026-05-06 19:02
Airport Frankfurt Main Airport (EDDF)

Arrival

Time N/A
Airport Vienna International Airport (LOWW)
Time Latitude Longitude Altitude Speed Heading
2026-05-06 18:30 50.04435 8.56327 361 ft 0 kts 167°
2026-05-06 18:50 50.04442 8.56325 364 ft 4 kts 167°
2026-05-06 18:50 50.04465 8.56316 359 ft 1 kts 166°
2026-05-06 18:50 50.04488 8.56310 356 ft 4 kts 190°
2026-05-06 18:51 50.04502 8.56326 364 ft 4 kts 249°
2026-05-06 18:51 50.04510 8.56358 362 ft 0 kts 249°
2026-05-06 18:53 50.04509 8.56353 356 ft 1 kts 249°
2026-05-06 18:53 50.04506 8.56342 361 ft 0 kts 249°
2026-05-06 18:54 50.04497 8.56304 358 ft 6 kts 250°
2026-05-06 18:54 50.04479 8.56227 362 ft 9 kts 248°
2026-05-06 18:54 50.04455 8.56132 364 ft 10 kts 250°
2026-05-06 18:54 50.04435 8.56060 363 ft 5 kts 235°
2026-05-06 18:55 50.04422 8.56041 356 ft 0 kts 219°
2026-05-06 18:55 50.04417 8.56037 356 ft 3 kts 208°
2026-05-06 18:55 50.04394 8.56032 356 ft 5 kts 176°
2026-05-06 18:55 50.04345 8.56055 358 ft 10 kts 161°
2026-05-06 18:56 50.04278 8.56071 354 ft 9 kts 210°
2026-05-06 18:56 50.04248 8.55975 361 ft 10 kts 251°
2026-05-06 18:56 50.04222 8.55863 361 ft 12 kts 248°
2026-05-06 18:56 50.04190 8.55737 356 ft 13 kts 249°
2026-05-06 18:57 50.04155 8.55597 357 ft 15 kts 249°
2026-05-06 18:57 50.04120 8.55440 356 ft 16 kts 250°
2026-05-06 18:57 50.04081 8.55279 361 ft 16 kts 249°
2026-05-06 18:57 50.04041 8.55116 355 ft 17 kts 249°
2026-05-06 18:58 50.04003 8.54942 356 ft 18 kts 249°
2026-05-06 18:58 50.03955 8.54752 353 ft 20 kts 250°
2026-05-06 18:58 50.03908 8.54542 356 ft 21 kts 250°
2026-05-06 18:58 50.03841 8.54334 350 ft 22 kts 231°
2026-05-06 18:59 50.03776 8.54122 349 ft 22 kts 250°
2026-05-06 18:59 50.03723 8.53897 343 ft 22 kts 249°
2026-05-06 18:59 50.03664 8.53669 350 ft 22 kts 248°
2026-05-06 18:59 50.03610 8.53444 338 ft 22 kts 251°
2026-05-06 19:00 50.03557 8.53220 336 ft 22 kts 249°
2026-05-06 19:00 50.03503 8.52998 336 ft 22 kts 249°
2026-05-06 19:00 50.03448 8.52779 333 ft 22 kts 246°
2026-05-06 19:00 50.03407 8.52635 333 ft 3 kts 245°
2026-05-06 19:01 50.03397 8.52604 333 ft 3 kts 237°
2026-05-06 19:01 50.03379 8.52594 332 ft 3 kts 186°
2026-05-06 19:01 50.03318 8.52595 335 ft 31 kts 179°
2026-05-06 19:01 50.02834 8.52598 335 ft 106 kts 179°
2026-05-06 19:02 50.01884 8.52609 337 ft 165 kts 180°
2026-05-06 19:02 50.00696 8.52640 908 ft 169 kts 181°
2026-05-06 19:02 49.99509 8.52666 1634 ft 174 kts 182°
2026-05-06 19:02 49.98237 8.52669 2004 ft 194 kts 182°
2026-05-06 19:03 49.96858 8.53151 2320 ft 217 kts 152°
2026-05-06 19:03 49.95786 8.54908 2617 ft 237 kts 118°
2026-05-06 19:03 49.94995 8.57184 3291 ft 241 kts 120°
2026-05-06 19:03 49.94246 8.59537 3833 ft 246 kts 109°
2026-05-06 19:04 49.93975 8.62258 3976 ft 269 kts 94°
2026-05-06 19:04 49.93865 8.65207 4004 ft 276 kts 94°
2026-05-06 19:04 49.93559 8.68140 4003 ft 275 kts 112°
2026-05-06 19:04 49.92581 8.70649 4006 ft 272 kts 136°
2026-05-06 19:05 49.91113 8.72457 4004 ft 270 kts 147°
2026-05-06 19:05 49.89558 8.74159 4489 ft 275 kts 146°
2026-05-06 19:05 49.88194 8.76238 5358 ft 279 kts 128°
2026-05-06 19:05 49.87197 8.78845 6158 ft 283 kts 121°
2026-05-06 19:06 49.86242 8.81524 6892 ft 285 kts 121°
2026-05-06 19:06 49.85274 8.84225 7624 ft 288 kts 121°
2026-05-06 19:06 49.84291 8.86954 8362 ft 292 kts 121°
2026-05-06 19:06 49.83292 8.89714 9090 ft 295 kts 121°
2026-05-06 19:07 49.82278 8.92502 9799 ft 299 kts 121°
2026-05-06 19:07 49.81232 8.95373 10149 ft 317 kts 121°
2026-05-06 19:07 49.80110 8.98448 10279 ft 339 kts 121°
2026-05-06 19:07 49.78924 9.01700 10601 ft 352 kts 121°
2026-05-06 19:08 49.77711 9.05031 11156 ft 357 kts 121°
2026-05-06 19:08 49.76533 9.08424 11825 ft 359 kts 115°
2026-05-06 19:08 49.75721 9.12091 12471 ft 363 kts 105°
2026-05-06 19:08 49.75115 9.15894 13102 ft 366 kts 105°
2026-05-06 19:09 49.74508 9.19725 13723 ft 368 kts 104°
2026-05-06 19:09 49.73897 9.23581 14282 ft 371 kts 105°
2026-05-06 19:09 49.73274 9.27466 14834 ft 374 kts 105°
2026-05-06 19:09 49.72642 9.31372 15397 ft 376 kts 105°
2026-05-06 19:10 49.72003 9.35293 15964 ft 378 kts 105°
2026-05-06 19:10 49.71357 9.39239 16491 ft 380 kts 105°
2026-05-06 19:10 49.70706 9.43218 17036 ft 383 kts 106°
2026-05-06 19:10 49.70049 9.47217 17574 ft 385 kts 105°
2026-05-06 19:11 49.69394 9.51185 18092 ft 388 kts 106°
2026-05-06 19:11 49.68721 9.55243 18519 ft 391 kts 106°
2026-05-06 19:11 49.68047 9.59322 18964 ft 394 kts 106°
2026-05-06 19:11 49.67471 9.63466 19403 ft 397 kts 99°
2026-05-06 19:12 49.67364 9.67803 19839 ft 402 kts 88°
2026-05-06 19:12 49.67793 9.72087 20270 ft 406 kts 77°
2026-05-06 19:12 49.68470 9.76274 20699 ft 409 kts 78°
2026-05-06 19:12 49.69140 9.80546 21133 ft 411 kts 78°
2026-05-06 19:13 49.69813 9.84910 21563 ft 413 kts 78°
2026-05-06 19:13 49.70479 9.89237 21993 ft 416 kts 78°
2026-05-06 19:13 49.71144 9.93535 22399 ft 418 kts 78°
2026-05-06 19:13 49.71823 9.97913 22798 ft 420 kts 79°
2026-05-06 19:14 49.72506 10.02313 23214 ft 422 kts 79°
2026-05-06 19:14 49.73194 10.06743 23597 ft 425 kts 79°
2026-05-06 19:14 49.73886 10.11190 23956 ft 427 kts 80°
2026-05-06 19:14 49.74579 10.15659 24309 ft 429 kts 80°
2026-05-06 19:15 49.75271 10.20156 24614 ft 432 kts 80°
2026-05-06 19:15 49.75967 10.24699 24904 ft 436 kts 80°
2026-05-06 19:15 49.76664 10.29271 25231 ft 438 kts 80°
2026-05-06 19:15 49.77361 10.33867 25562 ft 440 kts 80°
2026-05-06 19:16 49.78034 10.38490 25903 ft 440 kts 84°
2026-05-06 19:16 49.78264 10.43181 26225 ft 438 kts 92°
2026-05-06 19:16 49.78376 10.47903 26518 ft 441 kts 92°
2026-05-06 19:16 49.78482 10.52655 26815 ft 443 kts 92°
2026-05-06 19:17 49.78583 10.57431 27146 ft 445 kts 92°
2026-05-06 19:17 49.78682 10.62229 27482 ft 447 kts 93°
2026-05-06 19:17 49.78781 10.67042 27812 ft 449 kts 93°
2026-05-06 19:17 49.78882 10.71883 28147 ft 451 kts 93°
2026-05-06 19:18 49.78982 10.76737 28466 ft 452 kts 93°
2026-05-06 19:18 49.79079 10.81613 28782 ft 454 kts 93°
2026-05-06 19:18 49.79172 10.86507 29091 ft 456 kts 93°
2026-05-06 19:18 49.79260 10.91420 29356 ft 458 kts 93°
2026-05-06 19:19 49.79343 10.96359 29571 ft 461 kts 93°
2026-05-06 19:19 49.79429 11.01329 29800 ft 463 kts 93°
2026-05-06 19:19 49.79517 11.06320 30025 ft 465 kts 93°
2026-05-06 19:19 49.79605 11.11326 30229 ft 466 kts 93°
2026-05-06 19:20 49.79690 11.16345 30490 ft 466 kts 94°
2026-05-06 19:20 49.79774 11.21365 30747 ft 467 kts 94°
2026-05-06 19:20 49.79856 11.26394 30989 ft 467 kts 93°
2026-05-06 19:20 49.79935 11.31424 31237 ft 468 kts 94°
2026-05-06 19:21 49.80010 11.36462 31485 ft 468 kts 94°
2026-05-06 19:21 49.80081 11.41507 31655 ft 471 kts 94°
2026-05-06 19:21 49.80148 11.46597 31799 ft 475 kts 94°
2026-05-06 19:21 49.80214 11.51717 32009 ft 476 kts 94°
2026-05-06 19:22 49.80278 11.56847 32238 ft 477 kts 94°
2026-05-06 19:22 49.80342 11.61978 32499 ft 477 kts 94°
2026-05-06 19:22 49.80404 11.67114 32726 ft 478 kts 94°
2026-05-06 19:23 49.80507 11.75615 32798 ft 470 kts 94°
2026-05-06 19:23 49.80622 11.85692 32771 ft 468 kts 95°
2026-05-06 19:24 49.80723 11.95792 32790 ft 471 kts 95°
2026-05-06 19:24 49.80807 12.05968 32794 ft 478 kts 95°
2026-05-06 19:25 49.80872 12.16456 32795 ft 489 kts 95°
2026-05-06 19:25 49.80949 12.27028 32792 ft 492 kts 95°
2026-05-06 19:26 49.80985 12.37643 32799 ft 494 kts 99°
2026-05-06 19:26 49.79597 12.47841 32789 ft 478 kts 118°
2026-05-06 19:27 49.76408 12.56629 32779 ft 464 kts 132°
2026-05-06 19:27 49.72720 12.64846 32763 ft 466 kts 131°
2026-05-06 19:28 49.69031 12.73087 32750 ft 461 kts 131°
2026-05-06 19:28 49.67263 12.77052 32780 ft 450 kts 131°
2026-05-06 19:28 49.65474 12.81053 32777 ft 446 kts 132°
2026-05-06 19:29 49.61968 12.88829 32774 ft 444 kts 132°
2026-05-06 19:29 49.58436 12.96627 32774 ft 443 kts 132°
2026-05-06 19:30 49.54902 13.04418 32774 ft 444 kts 132°
2026-05-06 19:30 49.51369 13.12204 32777 ft 444 kts 132°
2026-05-06 19:31 49.47827 13.19986 32784 ft 444 kts 132°
2026-05-06 19:31 49.42495 13.31616 32784 ft 444 kts 132°
2026-05-06 19:32 49.38946 13.39357 32796 ft 442 kts 132°
2026-05-06 19:32 49.35409 13.47052 32761 ft 441 kts 132°
2026-05-06 19:33 49.31864 13.54736 32755 ft 441 kts 132°
2026-05-06 19:33 49.28308 13.62412 32753 ft 442 kts 133°
2026-05-06 19:34 49.24967 13.70214 32768 ft 440 kts 119°
2026-05-06 19:34 49.24179 13.74772 32768 ft 450 kts 101°
2026-05-06 19:34 49.24076 13.79590 32758 ft 455 kts 95°
2026-05-06 19:35 49.24127 13.89155 32732 ft 437 kts 95°
2026-05-06 19:35 49.24198 13.98313 32757 ft 428 kts 95°
2026-05-06 19:36 49.24272 14.07394 32761 ft 426 kts 95°
2026-05-06 19:36 49.24213 14.16442 32754 ft 422 kts 106°
2026-05-06 19:37 49.23405 14.20709 32743 ft 416 kts 123°
2026-05-06 19:37 49.21891 14.24413 32746 ft 408 kts 139°
2026-05-06 19:37 49.19816 14.27302 32750 ft 401 kts 154°
2026-05-06 19:37 49.17346 14.29204 32745 ft 396 kts 168°
2026-05-06 19:38 49.14668 14.30059 32739 ft 393 kts 179°
2026-05-06 19:38 49.11932 14.30542 32642 ft 398 kts 179°
2026-05-06 19:38 49.09173 14.31026 32374 ft 400 kts 179°
2026-05-06 19:38 49.06405 14.31513 32102 ft 401 kts 179°
2026-05-06 19:39 49.03650 14.32006 31834 ft 394 kts 179°
2026-05-06 19:39 49.00960 14.32505 31572 ft 385 kts 178°
2026-05-06 19:39 48.98363 14.33383 31321 ft 382 kts 168°
2026-05-06 19:39 48.95918 14.34933 31075 ft 381 kts 159°
2026-05-06 19:40 48.93677 14.37123 30812 ft 386 kts 149°
2026-05-06 19:40 48.91717 14.39903 30560 ft 386 kts 139°
2026-05-06 19:40 48.90056 14.43097 30312 ft 383 kts 135°
2026-05-06 19:40 48.88448 14.46301 30069 ft 380 kts 135°
2026-05-06 19:41 48.86842 14.49486 29827 ft 380 kts 135°
2026-05-06 19:41 48.85231 14.52669 29546 ft 380 kts 135°
2026-05-06 19:41 48.83618 14.55844 29257 ft 380 kts 135°
2026-05-06 19:41 48.81997 14.59024 28851 ft 381 kts 136°
2026-05-06 19:42 48.80376 14.62205 28414 ft 381 kts 136°
2026-05-06 19:42 48.78754 14.65388 28008 ft 382 kts 135°
2026-05-06 19:42 48.77130 14.68572 27604 ft 382 kts 135°
2026-05-06 19:42 48.75504 14.71759 27209 ft 382 kts 135°
2026-05-06 19:43 48.73877 14.74941 26819 ft 382 kts 135°
2026-05-06 19:43 48.72261 14.78108 26475 ft 376 kts 135°
2026-05-06 19:43 48.70683 14.81208 26219 ft 368 kts 135°
2026-05-06 19:43 48.69137 14.84237 25965 ft 359 kts 135°
2026-05-06 19:44 48.67625 14.87194 25718 ft 351 kts 136°
2026-05-06 19:44 48.66146 14.90084 25469 ft 345 kts 136°
2026-05-06 19:44 48.64680 14.92933 25198 ft 342 kts 135°
2026-05-06 19:44 48.63228 14.95743 24955 ft 336 kts 136°
2026-05-06 19:45 48.61802 14.98503 24712 ft 331 kts 136°
2026-05-06 19:45 48.60396 15.01245 24473 ft 330 kts 133°
2026-05-06 19:45 48.59193 15.04221 24170 ft 334 kts 123°
2026-05-06 19:45 48.58327 15.07496 23815 ft 338 kts 113°
2026-05-06 19:46 48.57735 15.10939 23460 ft 338 kts 111°
2026-05-06 19:46 48.57157 15.14367 23060 ft 336 kts 111°
2026-05-06 19:46 48.56576 15.17764 22642 ft 333 kts 111°
2026-05-06 19:46 48.55992 15.21137 22235 ft 330 kts 111°
2026-05-06 19:47 48.55413 15.24465 21963 ft 326 kts 112°
2026-05-06 19:47 48.54838 15.27763 21696 ft 325 kts 112°
2026-05-06 19:47 48.54260 15.31069 21433 ft 326 kts 112°
2026-05-06 19:47 48.53681 15.34375 21143 ft 326 kts 111°
2026-05-06 19:48 48.53103 15.37673 20890 ft 325 kts 111°
2026-05-06 19:48 48.52527 15.40962 20632 ft 324 kts 111°
2026-05-06 19:48 48.51946 15.44228 20378 ft 319 kts 114°
2026-05-06 19:48 48.51141 15.47275 20127 ft 307 kts 126°
2026-05-06 19:49 48.49904 15.49800 19882 ft 299 kts 144°
2026-05-06 19:49 48.48203 15.51481 19633 ft 287 kts 165°
2026-05-06 19:49 48.46297 15.52104 19391 ft 277 kts 183°
2026-05-06 19:49 48.44392 15.51731 19149 ft 279 kts 200°
2026-05-06 19:50 48.42651 15.50455 18907 ft 279 kts 217°
2026-05-06 19:50 48.41270 15.48409 18662 ft 281 kts 233°
2026-05-06 19:50 48.40390 15.45779 18442 ft 285 kts 250°
2026-05-06 19:50 48.40113 15.42810 18203 ft 291 kts 265°
2026-05-06 19:51 48.40192 15.39760 17963 ft 293 kts 269°
2026-05-06 19:51 48.40374 15.36713 17694 ft 293 kts 271°
2026-05-06 19:51 48.40593 15.33674 17425 ft 291 kts 271°
2026-05-06 19:51 48.40816 15.30647 17163 ft 290 kts 271°
2026-05-06 19:52 48.41079 15.27639 16889 ft 292 kts 279°
2026-05-06 19:52 48.41880 15.24807 16748 ft 300 kts 298°
2026-05-06 19:52 48.43309 15.22474 16760 ft 310 kts 318°
2026-05-06 19:52 48.45251 15.20977 16758 ft 321 kts 340°
2026-05-06 19:53 48.47490 15.20638 16757 ft 330 kts
2026-05-06 19:53 48.49696 15.21628 16762 ft 335 kts 28°
2026-05-06 19:53 48.51500 15.23830 16763 ft 335 kts 53°
2026-05-06 19:53 48.52598 15.26875 16756 ft 329 kts 78°
2026-05-06 19:54 48.52866 15.30246 16758 ft 322 kts 97°
2026-05-06 19:54 48.52744 15.33611 16749 ft 320 kts 99°
2026-05-06 19:54 48.52543 15.36956 16731 ft 321 kts 100°
2026-05-06 19:54 48.52309 15.40293 16460 ft 319 kts 101°
2026-05-06 19:55 48.52071 15.43611 16204 ft 317 kts 100°
2026-05-06 19:55 48.51851 15.46901 15953 ft 312 kts 99°
2026-05-06 19:55 48.51659 15.50130 15696 ft 306 kts 99°
2026-05-06 19:55 48.51481 15.53307 15439 ft 303 kts 98°
2026-05-06 19:56 48.51307 15.56462 15198 ft 301 kts 98°
2026-05-06 19:56 48.51134 15.59600 14948 ft 299 kts 98°
2026-05-06 19:56 48.50961 15.62718 14772 ft 298 kts 98°
2026-05-06 19:56 48.50786 15.65830 14750 ft 298 kts 98°
2026-05-06 19:57 48.50604 15.68946 14732 ft 299 kts 98°
2026-05-06 19:57 48.50420 15.72066 14491 ft 297 kts 98°
2026-05-06 19:57 48.50240 15.75161 14243 ft 295 kts 98°
2026-05-06 19:57 48.50061 15.78227 14000 ft 292 kts 98°
2026-05-06 19:58 48.49883 15.81274 13758 ft 291 kts 98°
2026-05-06 19:58 48.49704 15.84304 13528 ft 289 kts 98°
2026-05-06 19:58 48.49526 15.87319 13268 ft 288 kts 98°
2026-05-06 19:58 48.49345 15.90323 13001 ft 287 kts 98°
2026-05-06 19:59 48.49164 15.93312 12796 ft 286 kts 99°
2026-05-06 19:59 48.48982 15.96295 12745 ft 286 kts 98°
2026-05-06 19:59 48.48799 15.99302 12754 ft 292 kts 98°
2026-05-06 19:59 48.48608 16.02374 12753 ft 296 kts 98°
2026-05-06 20:00 48.48416 16.05472 12754 ft 298 kts 98°
2026-05-06 20:00 48.48224 16.08584 12752 ft 298 kts 99°
2026-05-06 20:00 48.47892 16.11641 12755 ft 293 kts 114°
2026-05-06 20:00 48.46890 16.14238 12758 ft 284 kts 137°
2026-05-06 20:01 48.45344 16.16006 12758 ft 277 kts 159°
2026-05-06 20:01 48.43530 16.16777 12753 ft 268 kts 179°
2026-05-06 20:01 48.41727 16.16547 12751 ft 252 kts 198°
2026-05-06 20:01 48.40183 16.15496 12753 ft 240 kts 215°
2026-05-06 20:02 48.38967 16.13795 12754 ft 240 kts 231°
2026-05-06 20:02 48.38167 16.11581 12758 ft 244 kts 250°
2026-05-06 20:02 48.37879 16.09040 12758 ft 251 kts 268°
2026-05-06 20:02 48.38148 16.06431 12759 ft 255 kts 281°
2026-05-06 20:03 48.38654 16.03862 12758 ft 257 kts 284°
2026-05-06 20:03 48.39229 16.01314 12754 ft 257 kts 285°
2026-05-06 20:03 48.39822 15.98775 12757 ft 257 kts 285°
2026-05-06 20:03 48.40414 15.96231 12755 ft 257 kts 285°
2026-05-06 20:04 48.40801 15.94546 12755 ft 257 kts 285°
2026-05-06 20:04 48.41454 15.92038 12754 ft 260 kts 295°
2026-05-06 20:04 48.42578 15.89880 12754 ft 266 kts 315°
2026-05-06 20:04 48.44170 15.88416 12721 ft 274 kts 336°
2026-05-06 20:05 48.46049 15.87912 12461 ft 277 kts
2026-05-06 20:05 48.47929 15.88529 12202 ft 279 kts 24°
2026-05-06 20:05 48.49527 15.90151 11941 ft 278 kts 47°
2026-05-06 20:05 48.50614 15.92530 11693 ft 275 kts 70°
2026-05-06 20:06 48.51046 15.95296 11440 ft 270 kts 92°
2026-05-06 20:06 48.50813 15.98049 11195 ft 264 kts 109°
2026-05-06 20:06 48.50290 16.00718 10950 ft 267 kts 112°
2026-05-06 20:06 48.49695 16.03377 10709 ft 267 kts 114°
2026-05-06 20:07 48.49075 16.06053 10455 ft 267 kts 114°
2026-05-06 20:07 48.48302 16.08507 10213 ft 259 kts 130°
2026-05-06 20:07 48.47056 16.10446 9979 ft 252 kts 149°
2026-05-06 20:07 48.45552 16.11639 9745 ft 247 kts 161°
2026-05-06 20:08 48.43978 16.12664 9498 ft 246 kts 160°
2026-05-06 20:08 48.42407 16.13699 9237 ft 246 kts 160°
2026-05-06 20:08 48.40840 16.14736 8971 ft 246 kts 160°
2026-05-06 20:08 48.39258 16.15781 8699 ft 245 kts 160°
2026-05-06 20:09 48.37692 16.16811 8437 ft 246 kts 160°
2026-05-06 20:09 48.36115 16.17847 8189 ft 248 kts 160°
2026-05-06 20:09 48.34534 16.18888 7938 ft 248 kts 160°
2026-05-06 20:09 48.32983 16.20017 7684 ft 249 kts 150°
2026-05-06 20:10 48.31694 16.21767 7433 ft 252 kts 130°
2026-05-06 20:10 48.30858 16.24028 7192 ft 254 kts 112°
2026-05-06 20:10 48.30544 16.26680 6946 ft 257 kts 91°
2026-05-06 20:10 48.30830 16.29334 6707 ft 258 kts 71°
2026-05-06 20:11 48.31637 16.31708 6464 ft 255 kts 50°
2026-05-06 20:11 48.32899 16.33483 6231 ft 251 kts 28°
2026-05-06 20:11 48.34481 16.34463 6042 ft 245 kts
2026-05-06 20:11 48.36157 16.34537 5990 ft 240 kts 347°
2026-05-06 20:12 48.37764 16.33913 5991 ft 239 kts 340°
2026-05-06 20:12 48.39318 16.33249 5998 ft 226 kts 339°
2026-05-06 20:12 48.40815 16.32611 5989 ft 223 kts 340°
2026-05-06 20:12 48.42312 16.32002 5982 ft 224 kts 345°
2026-05-06 20:13 48.43880 16.32203 5808 ft 232 kts 19°
2026-05-06 20:13 48.45158 16.33660 5549 ft 235 kts 53°
2026-05-06 20:13 48.45830 16.35902 5312 ft 237 kts 73°
2026-05-06 20:13 48.45993 16.38325 5058 ft 231 kts 104°
2026-05-06 20:14 48.45323 16.40361 4984 ft 206 kts 135°
2026-05-06 20:14 48.44380 16.41877 4988 ft 195 kts 140°
2026-05-06 20:14 48.43426 16.43304 4991 ft 193 kts 140°
2026-05-06 20:14 48.42436 16.44643 4978 ft 188 kts 155°
2026-05-06 20:15 48.41236 16.45305 4994 ft 183 kts 168°
2026-05-06 20:15 48.40012 16.45863 4995 ft 184 kts 169°
2026-05-06 20:15 48.38789 16.46398 4994 ft 183 kts 169°
2026-05-06 20:15 48.37561 16.46926 4995 ft 185 kts 169°
2026-05-06 20:16 48.36321 16.47457 4993 ft 185 kts 169°
2026-05-06 20:16 48.35086 16.47986 4994 ft 184 kts 169°
2026-05-06 20:16 48.33851 16.48514 4915 ft 185 kts 169°
2026-05-06 20:16 48.32619 16.49040 4727 ft 183 kts 171°
2026-05-06 20:17 48.31402 16.49560 4505 ft 181 kts 171°
2026-05-06 20:17 48.30176 16.50083 4257 ft 180 kts 171°
2026-05-06 20:17 48.28997 16.50586 4032 ft 177 kts 171°
2026-05-06 20:17 48.27806 16.51094 3788 ft 173 kts 172°
2026-05-06 20:18 48.26677 16.51577 3555 ft 165 kts 172°
2026-05-06 20:18 48.25586 16.52039 3414 ft 170 kts 172°
2026-05-06 20:18 48.24392 16.52516 4118 ft 178 kts 173°
2026-05-06 20:18 48.23193 16.52995 4737 ft 183 kts 173°
2026-05-06 20:19 48.21889 16.53498 5005 ft 204 kts 172°
2026-05-06 20:19 48.20472 16.54049 5425 ft 216 kts 171°
2026-05-06 20:19 48.19011 16.54628 5895 ft 223 kts 171°
2026-05-06 20:19 48.17509 16.55230 5987 ft 223 kts 171°
2026-05-06 20:20 48.16015 16.55830 6002 ft 222 kts 171°
2026-05-06 20:20 48.14507 16.56423 6005 ft 221 kts 171°
2026-05-06 20:20 48.13023 16.56991 6005 ft 220 kts 171°
2026-05-06 20:20 48.11536 16.57549 6006 ft 220 kts 172°
2026-05-06 20:21 48.10052 16.58104 6006 ft 220 kts 171°
2026-05-06 20:21 48.08561 16.58673 6001 ft 222 kts 172°
2026-05-06 20:21 48.07066 16.59266 6004 ft 222 kts 172°
2026-05-06 20:21 48.05573 16.59862 6005 ft 222 kts 171°
2026-05-06 20:22 48.04076 16.60454 6008 ft 223 kts 171°
2026-05-06 20:22 48.02594 16.61033 6006 ft 223 kts 171°
2026-05-06 20:22 48.01176 16.62103 6007 ft 235 kts 142°
2026-05-06 20:22 48.00306 16.64185 6006 ft 250 kts 111°
2026-05-06 20:23 48.00239 16.66814 6005 ft 261 kts 82°
2026-05-06 20:23 48.00695 16.69466 6007 ft 265 kts 76°
2026-05-06 20:23 48.01228 16.72093 6008 ft 265 kts 76°
2026-05-06 20:23 48.01773 16.74715 6008 ft 264 kts 76°
2026-05-06 20:24 48.02337 16.77331 6012 ft 266 kts 70°
2026-05-06 20:24 48.03381 16.79584 6009 ft 266 kts 38°
2026-05-06 20:24 48.04999 16.80808 6010 ft 260 kts
2026-05-06 20:24 48.06750 16.80735 6016 ft 250 kts 341°
2026-05-06 20:25 48.08427 16.80031 6010 ft 250 kts 336°
2026-05-06 20:25 48.10109 16.79223 6008 ft 251 kts 335°
2026-05-06 20:25 48.11767 16.78406 6008 ft 251 kts 335°
2026-05-06 20:25 48.13403 16.77596 6006 ft 251 kts 335°
2026-05-06 20:26 48.15060 16.76775 6004 ft 251 kts 335°
2026-05-06 20:26 48.16740 16.75948 6004 ft 251 kts 337°
2026-05-06 20:26 48.18490 16.75694 6023 ft 260 kts
2026-05-06 20:26 48.20161 16.76760 6024 ft 265 kts 39°
2026-05-06 20:27 48.21358 16.78921 6024 ft 271 kts 62°
2026-05-06 20:27 48.22257 16.81376 6018 ft 267 kts 66°
2026-05-06 20:27 48.22768 16.83990 6017 ft 258 kts 95°
2026-05-06 20:27 48.22481 16.86587 6022 ft 251 kts 113°
2026-05-06 20:28 48.21944 16.89070 6034 ft 250 kts 115°
2026-05-06 20:28 48.21398 16.91541 6035 ft 252 kts 109°
2026-05-06 20:28 48.21375 16.94199 6039 ft 262 kts 82°